Time,TemperatureF,DewpointF,PressureIn,WindDirection,WindDirectionDegrees,WindSpeedMPH,WindSpeedGustMPH,Humidity,HourlyPrecipIn,Conditions,Clouds,dailyrainin,SoftwareType,DateUTC
2013-08-05 00:01:00,70.2,66.4,29.97,NW,322,0.0,0.0,88,0.00,,,0.00,meteohub,2013-08-05 04:01:00,
2013-08-05 00:02:00,70.2,66.4,29.97,NW,322,0.0,0.0,88,0.00,,,0.00,meteohub,2013-08-05 04:02:00,
2013-08-05 00:07:00,70.2,66.4,29.97,NW,322,0.0,0.0,88,0.00,,,0.00,meteohub,2013-08-05 04:07:00,
2013-08-05 00:12:00,70.2,66.0,29.97,NW,322,0.0,0.0,87,0.00,,,0.00,meteohub,2013-08-05 04:12:00,
2013-08-05 00:17:00,70.2,66.0,29.98,NW,322,0.0,0.0,87,0.00,,,0.00,meteohub,2013-08-05 04:17:00,
2013-08-05 00:22:00,70.2,65.8,29.97,NW,321,0.0,0.0,86,0.00,,,0.00,meteohub,2013-08-05 04:22:00,
2013-08-05 00:27:00,70.2,65.8,29.97,NW,322,0.0,0.0,86,0.00,,,0.00,meteohub,2013-08-05 04:27:00,
2013-08-05 00:32:00,70.2,65.8,29.97,NW,322,0.0,0.0,86,0.00,,,0.00,meteohub,2013-08-05 04:32:00,
2013-08-05 00:38:00,70.2,65.8,29.97,NW,321,0.0,0.0,86,0.00,,,0.00,meteohub,2013-08-05 04:38:00,
2013-08-05 00:43:00,70.2,65.8,29.97,NW,321,0.0,0.0,86,0.00,,,0.00,meteohub,2013-08-05 04:43:00,
2013-08-05 00:48:00,70.2,65.8,29.97,NW,322,0.0,0.0,86,0.00,,,0.00,meteohub,2013-08-05 04:48:00,
2013-08-05 00:53:00,70.2,65.8,29.97,NW,322,0.0,0.0,86,0.00,,,0.00,meteohub,2013-08-05 04:53:00,
2013-08-05 00:58:00,70.2,65.8,29.97,NW,321,0.0,0.0,86,0.00,,,0.00,meteohub,2013-08-05 04:58:00,
2013-08-05 01:03:00,70.2,66.0,29.97,NW,321,0.0,0.0,87,0.00,,,0.00,meteohub,2013-08-05 05:03:00,
2013-08-05 01:08:00,70.0,66.0,29.97,NW,321,0.0,0.0,87,0.00,,,0.00,meteohub,2013-08-05 05:08:00,
2013-08-05 01:13:00,69.8,66.0,29.97,NW,321,0.0,0.0,88,0.00,,,0.00,meteohub,2013-08-05 05:13:00,
2013-08-05 01:18:00,69.4,65.7,29.97,NW,322,0.0,0.0,88,0.00,,,0.00,meteohub,2013-08-05 05:18:00,
2013-08-05 01:22:00,69.4,65.7,29.97,NW,321,0.0,0.0,88,0.00,,,0.00,meteohub,2013-08-05 05:22:00,
2013-08-05 01:28:00,69.3,65.5,29.97,NW,321,0.0,0.0,88,0.00,,,0.00,meteohub,2013-08-05 05:28:00,
2013-08-05 01:33:00,69.1,65.7,29.97,NW,322,0.0,0.0,89,0.00,,,0.00,meteohub,2013-08-05 05:33:00,
2013-08-05 01:37:00,68.9,65.5,29.97,NW,322,0.0,0.0,89,0.00,,,0.00,meteohub,2013-08-05 05:37:00,
2013-08-05 01:43:00,68.7,65.7,29.97,NW,321,0.0,0.0,90,0.00,,,0.00,meteohub,2013-08-05 05:43:00,
2013-08-05 01:48:00,68.5,65.5,29.96,NW,322,0.0,0.0,90,0.00,,,0.00,meteohub,2013-08-05 05:48:00,
2013-08-05 01:53:00,68.5,65.5,29.96,NW,321,0.0,0.0,90,0.00,,,0.00,meteohub,2013-08-05 05:53:00,
2013-08-05 01:58:00,68.4,64.9,29.96,NW,321,0.0,0.0,89,0.00,,,0.00,meteohub,2013-08-05 05:58:00,
2013-08-05 02:03:00,68.4,65.3,29.96,NW,321,0.0,0.0,90,0.00,,,0.00,meteohub,2013-08-05 06:03:00,
2013-08-05 02:08:00,68.4,65.7,29.96,NW,321,0.0,0.0,91,0.00,,,0.00,meteohub,2013-08-05 06:08:00,
2013-08-05 02:13:00,68.4,65.3,29.96,NW,322,0.0,0.0,90,0.00,,,0.00,meteohub,2013-08-05 06:13:00,
2013-08-05 02:18:00,68.2,65.1,29.96,NW,321,0.0,0.0,90,0.00,,,0.00,meteohub,2013-08-05 06:18:00,
2013-08-05 02:23:00,68.2,65.1,29.96,NW,322,0.0,0.0,90,0.00,,,0.00,meteohub,2013-08-05 06:23:00,
2013-08-05 02:28:00,68.0,64.9,29.96,NW,321,0.0,0.0,90,0.00,,,0.00,meteohub,2013-08-05 06:28:00,
2013-08-05 02:33:00,67.8,65.1,29.96,NW,322,0.0,0.0,91,0.00,,,0.00,meteohub,2013-08-05 06:33:00,
2013-08-05 02:38:00,67.8,65.1,29.95,NW,322,0.0,0.0,91,0.00,,,0.00,meteohub,2013-08-05 06:38:00,
2013-08-05 02:43:00,67.6,64.9,29.95,NW,322,0.0,0.0,91,0.00,,,0.00,meteohub,2013-08-05 06:43:00,
2013-08-05 02:48:00,67.5,65.1,29.95,NW,322,0.0,0.0,92,0.00,,,0.00,meteohub,2013-08-05 06:48:00,
2013-08-05 02:53:00,67.3,65.1,29.95,NW,322,0.0,0.0,93,0.00,,,0.00,meteohub,2013-08-05 06:53:00,
2013-08-05 02:58:00,67.1,64.9,29.94,NW,322,0.0,0.0,93,0.00,,,0.00,meteohub,2013-08-05 06:58:00,
2013-08-05 03:03:00,66.9,64.8,29.94,NW,322,0.0,0.0,93,0.00,,,0.00,meteohub,2013-08-05 07:03:00,
2013-08-05 03:08:00,66.9,64.8,29.95,NW,322,0.0,0.0,93,0.00,,,0.00,meteohub,2013-08-05 07:08:00,
2013-08-05 03:13:00,66.7,64.9,29.95,NW,322,0.0,0.0,94,0.00,,,0.00,meteohub,2013-08-05 07:13:00,
2013-08-05 03:18:00,66.7,64.9,29.95,NW,322,0.0,0.0,94,0.00,,,0.00,meteohub,2013-08-05 07:18:00,
2013-08-05 03:23:00,66.7,64.9,29.95,NW,321,0.0,0.0,94,0.00,,,0.00,meteohub,2013-08-05 07:23:00,
2013-08-05 03:28:00,66.9,65.1,29.94,NW,322,0.0,0.0,94,0.00,,,0.00,meteohub,2013-08-05 07:28:00,
2013-08-05 03:33:00,66.9,65.1,29.94,NW,322,0.0,0.0,94,0.00,,,0.00,meteohub,2013-08-05 07:33:00,
2013-08-05 03:38:00,66.9,65.1,29.94,NW,321,0.0,0.0,94,0.00,,,0.00,meteohub,2013-08-05 07:38:00,
2013-08-05 03:43:00,66.9,65.1,29.94,NW,321,0.0,0.0,94,0.00,,,0.00,meteohub,2013-08-05 07:43:00,
2013-08-05 03:49:00,66.9,65.1,29.94,NW,322,0.0,0.0,94,0.00,,,0.00,meteohub,2013-08-05 07:49:00,
2013-08-05 03:54:00,66.9,65.1,29.94,NW,322,0.0,0.0,94,0.00,,,0.00,meteohub,2013-08-05 07:54:00,
2013-08-05 03:59:00,67.1,65.3,29.94,NW,321,0.0,0.0,94,0.00,,,0.00,meteohub,2013-08-05 07:59:00,
2013-08-05 04:03:00,67.1,65.3,29.94,NW,321,0.0,0.0,94,0.00,,,0.00,meteohub,2013-08-05 08:03:00,
2013-08-05 04:09:00,67.1,65.3,29.94,NW,321,0.0,0.0,94,0.00,,,0.00,meteohub,2013-08-05 08:09:00,
2013-08-05 04:14:00,67.1,65.3,29.94,NW,322,0.0,0.0,94,0.00,,,0.00,meteohub,2013-08-05 08:14:00,
2013-08-05 04:19:00,67.3,65.5,29.94,NW,321,0.0,0.0,94,0.00,,,0.00,meteohub,2013-08-05 08:19:00,
2013-08-05 04:24:00,67.3,65.5,29.94,NW,322,0.0,0.0,94,0.00,,,0.00,meteohub,2013-08-05 08:24:00,
2013-08-05 04:28:00,67.3,65.1,29.94,NW,321,0.0,0.0,93,0.00,,,0.00,meteohub,2013-08-05 08:28:00,
2013-08-05 04:34:00,67.3,65.1,29.94,NW,321,0.0,0.0,93,0.00,,,0.00,meteohub,2013-08-05 08:34:00,
2013-08-05 04:39:00,67.5,65.1,29.95,NW,322,0.0,0.0,92,0.00,,,0.00,meteohub,2013-08-05 08:39:00,
2013-08-05 04:44:00,67.6,65.3,29.95,NW,321,0.0,0.0,92,0.00,,,0.00,meteohub,2013-08-05 08:44:00,
2013-08-05 04:49:00,67.6,65.3,29.95,NW,321,0.0,0.0,92,0.00,,,0.00,meteohub,2013-08-05 08:49:00,
2013-08-05 04:54:00,67.8,65.1,29.95,NW,321,0.0,0.0,91,0.00,,,0.00,meteohub,2013-08-05 08:54:00,
2013-08-05 04:59:00,67.8,65.1,29.94,NW,322,0.0,0.0,91,0.00,,,0.00,meteohub,2013-08-05 08:59:00,
2013-08-05 05:05:00,67.8,64.8,29.94,NW,321,0.0,0.0,90,0.00,,,0.00,meteohub,2013-08-05 09:05:00,
2013-08-05 05:10:00,67.8,64.8,29.94,NW,322,0.0,0.0,90,0.00,,,0.00,meteohub,2013-08-05 09:10:00,
2013-08-05 05:16:00,68.2,65.1,29.94,NW,322,0.0,0.0,90,0.00,,,0.00,meteohub,2013-08-05 09:16:00,
2013-08-05 05:22:00,68.4,65.7,29.95,NW,321,0.0,0.0,91,0.00,,,0.00,meteohub,2013-08-05 09:22:00,
2013-08-05 05:26:00,68.4,66.0,29.95,NW,321,0.0,0.0,92,0.00,,,0.00,meteohub,2013-08-05 09:26:00,
2013-08-05 05:32:00,68.4,66.0,29.95,NW,322,0.0,0.0,92,0.00,,,0.00,meteohub,2013-08-05 09:32:00,
2013-08-05 05:37:00,68.2,65.5,29.95,NW,322,0.0,0.0,91,0.00,,,0.00,meteohub,2013-08-05 09:37:00,
2013-08-05 05:42:00,67.8,65.5,29.95,NW,321,0.0,0.0,92,0.00,,,0.00,meteohub,2013-08-05 09:42:00,
2013-08-05 05:47:00,67.8,65.5,29.95,NW,322,0.0,0.0,92,0.00,,,0.00,meteohub,2013-08-05 09:47:00,
2013-08-05 05:52:00,67.6,65.3,29.95,NW,321,0.0,0.0,92,0.00,,,0.00,meteohub,2013-08-05 09:52:00,
2013-08-05 05:57:00,67.6,65.3,29.95,NW,322,0.0,0.0,92,0.00,,,0.00,meteohub,2013-08-05 09:57:00,
2013-08-05 06:02:00,67.6,65.3,29.95,NW,321,0.0,0.0,92,0.00,,,0.00,meteohub,2013-08-05 10:02:00,
2013-08-05 06:07:00,67.6,65.3,29.95,NW,321,0.0,0.0,92,0.00,,,0.00,meteohub,2013-08-05 10:07:00,
2013-08-05 06:13:00,67.6,65.3,29.96,NW,322,0.0,0.0,92,0.00,,,0.00,meteohub,2013-08-05 10:13:00,
2013-08-05 06:18:00,67.6,65.5,29.96,NW,322,0.0,0.0,93,0.00,,,0.00,meteohub,2013-08-05 10:18:00,
2013-08-05 06:23:00,67.6,65.5,29.96,NW,322,0.0,0.0,93,0.00,,,0.00,meteohub,2013-08-05 10:23:00,
2013-08-05 06:27:00,67.6,65.5,29.96,NW,322,0.0,0.0,93,0.00,,,0.00,meteohub,2013-08-05 10:27:00,
2013-08-05 06:33:00,67.6,65.5,29.96,NW,322,0.0,0.0,93,0.00,,,0.00,meteohub,2013-08-05 10:33:00,
2013-08-05 06:39:00,67.8,65.7,29.96,NW,321,0.0,0.0,93,0.00,,,0.00,meteohub,2013-08-05 10:39:00,
2013-08-05 06:45:00,67.8,65.7,29.96,NW,321,0.0,0.0,93,0.00,,,0.00,meteohub,2013-08-05 10:45:00,
2013-08-05 06:50:00,68.0,65.8,29.96,NW,322,0.0,0.0,93,0.00,,,0.00,meteohub,2013-08-05 10:50:00,
2013-08-05 06:55:00,68.2,66.0,29.96,NW,322,0.0,0.0,93,0.00,,,0.00,meteohub,2013-08-05 10:55:00,
2013-08-05 07:00:00,68.4,66.2,29.96,NW,322,0.0,0.0,93,0.00,,,0.00,meteohub,2013-08-05 11:00:00,
2013-08-05 07:06:00,68.7,66.4,29.96,NW,321,0.0,0.0,92,0.00,,,0.00,meteohub,2013-08-05 11:06:00,
2013-08-05 07:11:00,68.7,66.4,29.96,NW,321,0.0,0.0,92,0.00,,,0.00,meteohub,2013-08-05 11:11:00,
2013-08-05 07:17:00,69.1,66.7,29.96,NW,322,0.0,0.0,92,0.00,,,0.00,meteohub,2013-08-05 11:17:00,
2013-08-05 07:21:00,69.1,66.4,29.96,NW,321,0.0,0.0,91,0.00,,,0.00,meteohub,2013-08-05 11:21:00,
2013-08-05 07:27:00,69.3,66.2,29.97,NW,322,0.0,0.0,90,0.00,,,0.00,meteohub,2013-08-05 11:27:00,
2013-08-05 07:32:00,69.4,66.4,29.97,NW,321,0.0,0.0,90,0.00,,,0.00,meteohub,2013-08-05 11:32:00,
2013-08-05 07:37:00,69.4,66.4,29.96,NW,322,0.0,0.0,90,0.00,,,0.00,meteohub,2013-08-05 11:37:00,
2013-08-05 07:42:00,69.6,66.6,29.97,NW,321,0.0,0.0,90,0.00,,,0.00,meteohub,2013-08-05 11:42:00,
2013-08-05 07:48:00,69.6,66.2,29.97,NW,321,0.0,0.0,89,0.00,,,0.00,meteohub,2013-08-05 11:48:00,
2013-08-05 07:53:00,70.0,66.2,29.97,NW,322,0.0,0.0,88,0.00,,,0.00,meteohub,2013-08-05 11:53:00,
2013-08-05 07:58:00,70.0,66.2,29.97,NW,322,0.0,0.0,88,0.00,,,0.00,meteohub,2013-08-05 11:58:00,
2013-08-05 08:03:00,70.2,66.4,29.98,NW,321,0.0,0.0,88,0.00,,,0.00,meteohub,2013-08-05 12:03:00,
2013-08-05 08:08:00,70.3,66.6,29.98,NW,322,0.0,0.0,88,0.00,,,0.00,meteohub,2013-08-05 12:08:00,
2013-08-05 08:13:00,70.5,66.7,29.99,NW,322,0.0,0.0,88,0.00,,,0.00,meteohub,2013-08-05 12:13:00,
2013-08-05 08:18:00,70.5,66.2,29.99,NW,321,0.0,0.0,86,0.00,,,0.00,meteohub,2013-08-05 12:18:00,
2013-08-05 08:23:00,70.7,66.0,29.99,NW,322,0.0,0.0,85,0.00,,,0.00,meteohub,2013-08-05 12:23:00,
2013-08-05 08:28:00,70.9,66.2,29.99,NW,322,0.0,0.0,85,0.00,,,0.00,meteohub,2013-08-05 12:28:00,
2013-08-05 08:33:00,71.1,66.4,29.99,NW,322,0.0,0.0,85,0.00,,,0.00,meteohub,2013-08-05 12:33:00,
2013-08-05 08:38:00,71.2,66.6,29.99,NW,322,0.0,0.0,85,0.00,,,0.00,meteohub,2013-08-05 12:38:00,
2013-08-05 08:43:00,71.2,66.6,29.99,NW,321,0.0,0.0,85,0.00,,,0.00,meteohub,2013-08-05 12:43:00,
2013-08-05 08:49:00,71.4,66.7,29.99,NW,321,0.0,0.0,85,0.00,,,0.00,meteohub,2013-08-05 12:49:00,
2013-08-05 08:54:00,71.4,67.1,29.99,NW,322,0.0,0.0,86,0.00,,,0.00,meteohub,2013-08-05 12:54:00,
2013-08-05 08:59:00,71.6,67.1,30.00,NW,321,0.0,0.0,86,0.00,,,0.00,meteohub,2013-08-05 12:59:00,
2013-08-05 09:04:00,71.8,67.3,30.00,NW,322,0.0,0.0,86,0.00,,,0.00,meteohub,2013-08-05 13:04:00,
2013-08-05 09:09:00,71.8,67.3,30.00,WNW,287,0.0,0.0,86,0.00,,,0.00,meteohub,2013-08-05 13:09:00,
2013-08-05 09:13:00,72.0,67.3,30.00,WNW,287,0.0,0.0,85,0.00,,,0.00,meteohub,2013-08-05 13:13:00,
2013-08-05 09:19:00,72.0,67.3,30.00,WNW,287,0.0,0.0,85,0.00,,,0.00,meteohub,2013-08-05 13:19:00,
2013-08-05 09:26:00,72.1,67.5,30.00,WNW,287,0.0,0.0,85,0.00,,,0.00,meteohub,2013-08-05 13:26:00,
2013-08-05 09:32:00,72.3,67.3,30.00,West,264,0.0,0.0,84,0.00,,,0.00,meteohub,2013-08-05 13:32:00,
2013-08-05 09:37:00,72.3,67.3,30.00,West,263,0.0,0.0,84,0.00,,,0.00,meteohub,2013-08-05 13:37:00,
2013-08-05 09:41:00,72.7,67.6,30.00,West,263,0.0,0.0,84,0.00,,,0.00,meteohub,2013-08-05 13:41:00,
2013-08-05 09:47:00,72.7,67.6,30.01,West,264,0.0,0.0,84,0.00,,,0.00,meteohub,2013-08-05 13:47:00,
2013-08-05 09:51:00,72.9,67.5,30.00,West,263,0.0,0.0,83,0.00,,,0.00,meteohub,2013-08-05 13:51:00,
2013-08-05 09:56:00,73.0,68.0,30.00,West,263,0.0,0.0,84,0.00,,,0.00,meteohub,2013-08-05 13:56:00,
2013-08-05 10:01:00,73.2,67.8,30.01,West,263,0.0,0.0,83,0.00,,,0.00,meteohub,2013-08-05 14:01:00,
2013-08-05 10:07:00,73.4,68.5,30.01,West,263,0.0,0.0,85,0.00,,,0.00,meteohub,2013-08-05 14:07:00,
2013-08-05 10:12:00,73.6,68.4,30.01,West,263,0.0,0.0,84,0.00,,,0.00,meteohub,2013-08-05 14:12:00,
2013-08-05 10:17:00,73.8,68.4,30.00,West,263,0.0,0.0,83,0.00,,,0.00,meteohub,2013-08-05 14:17:00,
2013-08-05 10:22:00,74.3,68.0,30.00,West,263,0.0,0.0,81,0.00,,,0.00,meteohub,2013-08-05 14:22:00,
2013-08-05 10:27:00,74.8,68.2,30.00,West,263,0.0,0.0,80,0.00,,,0.00,meteohub,2013-08-05 14:27:00,
2013-08-05 10:32:00,75.4,68.7,30.01,West,263,0.0,0.0,80,0.00,,,0.00,meteohub,2013-08-05 14:32:00,
2013-08-05 10:37:00,75.9,68.2,30.01,South,189,0.0,0.0,77,0.00,,,0.00,meteohub,2013-08-05 14:37:00,
2013-08-05 10:43:00,76.5,68.7,30.01,NNW,342,0.0,0.0,77,0.00,,,0.00,meteohub,2013-08-05 14:43:00,
2013-08-05 10:48:00,76.6,68.5,30.01,South,184,0.0,0.0,76,0.00,,,0.00,meteohub,2013-08-05 14:48:00,
2013-08-05 10:53:00,77.0,69.3,30.01,South,185,0.0,0.0,77,0.00,,,0.00,meteohub,2013-08-05 14:53:00,
2013-08-05 10:58:00,77.4,69.3,30.01,SSE,163,0.0,0.0,76,0.00,,,0.00,meteohub,2013-08-05 14:58:00,
2013-08-05 11:03:00,77.9,70.2,30.00,SSE,163,0.0,0.0,77,0.00,,,0.00,meteohub,2013-08-05 15:03:00,
2013-08-05 11:08:00,78.8,69.4,30.00,SSE,148,0.0,0.0,73,0.00,,,0.00,meteohub,2013-08-05 15:08:00,
2013-08-05 11:13:00,79.5,69.6,30.00,SSE,167,0.0,0.0,72,0.00,,,0.00,meteohub,2013-08-05 15:13:00,
2013-08-05 11:18:00,79.9,69.6,30.00,SSE,166,0.0,0.0,71,0.00,,,0.00,meteohub,2013-08-05 15:18:00,
2013-08-05 11:23:00,79.7,69.8,30.00,SSE,165,0.0,0.0,72,0.00,,,0.00,meteohub,2013-08-05 15:23:00,
2013-08-05 11:29:00,79.9,70.0,30.00,South,180,0.0,0.0,72,0.00,,,0.00,meteohub,2013-08-05 15:29:00,
2013-08-05 11:34:00,79.9,70.0,30.00,SSW,194,0.0,0.0,72,0.00,,,0.00,meteohub,2013-08-05 15:34:00,
2013-08-05 11:40:00,79.7,69.8,30.00,SW,218,0.0,0.0,72,0.00,,,0.00,meteohub,2013-08-05 15:40:00,
2013-08-05 11:47:00,79.9,70.9,30.00,SSW,210,0.0,0.0,74,0.00,,,0.00,meteohub,2013-08-05 15:47:00,
2013-08-05 11:51:00,80.4,70.5,30.00,SW,215,0.0,0.0,72,0.00,,,0.00,meteohub,2013-08-05 15:51:00,
2013-08-05 11:56:00,81.0,71.1,29.99,SSW,200,0.0,0.0,72,0.00,,,0.00,meteohub,2013-08-05 15:56:00,
2013-08-05 12:02:00,81.5,72.0,29.99,SSE,167,0.0,0.0,73,0.00,,,0.00,meteohub,2013-08-05 16:02:00,
2013-08-05 12:06:00,82.0,71.2,29.99,North,355,0.0,0.0,70,0.00,,,0.00,meteohub,2013-08-05 16:06:00,
2013-08-05 12:12:00,82.6,71.4,29.99,South,172,0.0,0.0,69,0.00,,,0.00,meteohub,2013-08-05 16:12:00,
2013-08-05 12:17:00,82.8,72.0,29.99,SSE,167,0.0,0.0,70,0.00,,,0.00,meteohub,2013-08-05 16:17:00,
2013-08-05 12:23:00,83.1,72.3,29.98,South,172,0.0,0.0,70,0.00,,,0.00,meteohub,2013-08-05 16:23:00,
2013-08-05 12:27:00,83.5,72.7,29.98,NW,314,0.0,0.0,70,0.00,,,0.00,meteohub,2013-08-05 16:27:00,
2013-08-05 12:33:00,83.5,72.7,29.98,NW,325,0.0,0.0,70,0.00,,,0.00,meteohub,2013-08-05 16:33:00,
2013-08-05 12:38:00,83.5,72.3,29.98,SW,224,0.0,0.0,69,0.00,,,0.00,meteohub,2013-08-05 16:38:00,
2013-08-05 12:43:00,83.7,72.3,29.98,SW,217,0.0,0.0,69,0.00,,,0.00,meteohub,2013-08-05 16:43:00,
2013-08-05 12:48:00,83.7,72.3,29.98,NNW,338,0.0,0.0,69,0.00,,,0.00,meteohub,2013-08-05 16:48:00,
2013-08-05 12:53:00,83.3,72.9,29.98,NNW,342,0.0,0.0,71,0.00,,,0.00,meteohub,2013-08-05 16:53:00,
2013-08-05 12:58:00,83.1,72.7,29.98,SSE,158,0.0,0.0,71,0.00,,,0.00,meteohub,2013-08-05 16:58:00,
2013-08-05 13:03:00,82.8,72.9,29.98,South,179,0.0,0.0,72,0.00,,,0.00,meteohub,2013-08-05 17:03:00,
2013-08-05 13:09:00,82.8,72.3,29.98,SW,219,0.0,0.0,71,0.00,,,0.00,meteohub,2013-08-05 17:09:00,
2013-08-05 13:14:00,82.8,72.3,29.98,SSW,208,0.0,0.0,71,0.00,,,0.00,meteohub,2013-08-05 17:14:00,
2013-08-05 13:19:00,83.5,72.7,29.97,SSE,151,0.0,0.0,70,0.00,,,0.00,meteohub,2013-08-05 17:19:00,
2013-08-05 13:24:00,84.0,72.7,29.97,South,174,0.0,0.0,69,0.00,,,0.00,meteohub,2013-08-05 17:24:00,
2013-08-05 13:29:00,84.0,72.7,29.97,South,176,0.0,0.0,69,0.00,,,0.00,meteohub,2013-08-05 17:29:00,
2013-08-05 13:34:00,83.5,72.7,29.97,SSW,211,0.0,0.0,70,0.00,,,0.00,meteohub,2013-08-05 17:34:00,
2013-08-05 13:39:00,82.9,72.5,29.97,South,191,0.0,0.0,71,0.00,,,0.00,meteohub,2013-08-05 17:39:00,
2013-08-05 13:44:00,83.1,72.3,29.97,West,263,0.0,0.0,70,0.00,,,0.00,meteohub,2013-08-05 17:44:00,
2013-08-05 13:49:00,83.8,73.8,29.97,NNW,338,0.0,0.0,72,0.00,,,0.00,meteohub,2013-08-05 17:49:00,
2013-08-05 13:54:00,84.4,73.6,29.96,SSW,210,0.0,0.0,70,0.00,,,0.00,meteohub,2013-08-05 17:54:00,
2013-08-05 14:00:00,84.6,73.2,29.96,WNW,287,0.0,0.0,69,0.00,,,0.00,meteohub,2013-08-05 18:00:00,
2013-08-05 14:05:00,84.0,72.7,29.96,West,279,0.0,0.0,69,0.00,,,0.00,meteohub,2013-08-05 18:05:00,
2013-08-05 14:10:00,82.9,71.8,29.96,NNW,333,0.0,0.0,69,0.00,,,0.00,meteohub,2013-08-05 18:10:00,
2013-08-05 14:15:00,82.2,72.7,29.96,NNW,333,0.0,0.0,73,0.00,,,0.00,meteohub,2013-08-05 18:15:00,
2013-08-05 14:20:00,81.9,72.7,29.96,NNW,333,0.0,0.0,74,0.00,,,0.00,meteohub,2013-08-05 18:20:00,
2013-08-05 14:25:00,81.3,72.3,29.96,NNW,333,0.0,0.0,74,0.00,,,0.00,meteohub,2013-08-05 18:25:00,
2013-08-05 14:30:00,81.0,72.3,29.96,NNW,333,0.0,0.0,75,0.00,,,0.00,meteohub,2013-08-05 18:30:00,
2013-08-05 14:35:00,80.8,72.1,29.96,NNW,333,0.0,0.0,75,0.00,,,0.00,meteohub,2013-08-05 18:35:00,
2013-08-05 14:40:00,81.1,73.2,29.96,NNW,333,0.0,0.0,77,0.00,,,0.00,meteohub,2013-08-05 18:40:00,
2013-08-05 14:45:00,81.7,73.0,29.96,NNW,345,0.0,0.0,75,0.00,,,0.00,meteohub,2013-08-05 18:45:00,
2013-08-05 14:50:00,82.6,71.4,29.96,SSE,167,0.0,0.0,69,0.00,,,0.00,meteohub,2013-08-05 18:50:00,
2013-08-05 14:55:00,83.7,72.0,29.96,SSW,207,0.0,0.0,68,0.00,,,0.00,meteohub,2013-08-05 18:55:00,
2013-08-05 15:00:00,84.6,71.4,29.95,SE,145,0.0,0.0,65,0.00,,,0.00,meteohub,2013-08-05 19:00:00,
2013-08-05 15:05:00,85.6,73.4,29.95,SSE,148,0.0,0.0,67,0.00,,,0.00,meteohub,2013-08-05 19:05:00,
2013-08-05 15:11:00,86.2,73.4,29.95,SSE,148,0.0,0.0,66,0.00,,,0.00,meteohub,2013-08-05 19:11:00,
2013-08-05 15:16:00,86.2,72.5,29.95,SSE,160,0.0,0.0,64,0.00,,,0.00,meteohub,2013-08-05 19:16:00,
2013-08-05 15:21:00,86.5,72.9,29.94,NNW,332,0.0,0.0,64,0.00,,,0.00,meteohub,2013-08-05 19:21:00,
2013-08-05 15:26:00,86.7,73.0,29.94,South,176,0.0,0.0,64,0.00,,,0.00,meteohub,2013-08-05 19:26:00,
2013-08-05 15:32:00,86.9,71.4,29.94,South,176,0.0,0.0,60,0.00,,,0.00,meteohub,2013-08-05 19:32:00,
2013-08-05 15:37:00,87.1,70.5,29.94,NW,323,0.0,0.0,58,0.00,,,0.00,meteohub,2013-08-05 19:37:00,
2013-08-05 15:42:00,87.1,71.4,29.94,WNW,299,0.0,0.0,60,0.00,,,0.00,meteohub,2013-08-05 19:42:00,
2013-08-05 15:47:00,87.1,71.4,29.94,WNW,300,0.0,0.0,60,0.00,,,0.00,meteohub,2013-08-05 19:47:00,
2013-08-05 15:52:00,86.7,69.6,29.94,South,184,0.0,0.0,57,0.00,,,0.00,meteohub,2013-08-05 19:52:00,
2013-08-05 15:57:00,86.9,68.2,29.94,SSW,200,0.0,0.0,54,0.00,,,0.00,meteohub,2013-08-05 19:57:00,
2013-08-05 16:02:00,87.1,67.8,29.93,NNW,330,0.0,0.0,53,0.00,,,0.00,meteohub,2013-08-05 20:02:00,
2013-08-05 16:07:00,86.5,69.4,29.94,NNW,329,0.0,0.0,57,0.00,,,0.00,meteohub,2013-08-05 20:07:00,
2013-08-05 16:12:00,86.2,71.1,29.94,NNW,329,0.0,0.0,61,0.00,,,0.00,meteohub,2013-08-05 20:12:00,
2013-08-05 16:17:00,85.6,71.6,29.94,NNW,329,0.0,0.0,63,0.00,,,0.00,meteohub,2013-08-05 20:17:00,
2013-08-05 16:22:00,85.3,71.8,29.94,NNW,329,0.0,0.0,64,0.00,,,0.00,meteohub,2013-08-05 20:22:00,
2013-08-05 16:28:00,85.3,72.1,29.94,NNW,328,0.0,0.0,65,0.00,,,0.00,meteohub,2013-08-05 20:28:00,
2013-08-05 16:33:00,85.1,71.1,29.93,North,357,0.0,0.0,63,0.00,,,0.00,meteohub,2013-08-05 20:33:00,
2013-08-05 16:38:00,84.9,72.3,29.93,North,357,0.0,0.0,66,0.00,,,0.00,meteohub,2013-08-05 20:38:00,
2013-08-05 16:43:00,84.7,71.6,29.93,North,357,0.0,0.0,65,0.00,,,0.00,meteohub,2013-08-05 20:43:00,
2013-08-05 16:48:00,84.6,72.0,29.93,North,357,0.0,0.0,66,0.00,,,0.00,meteohub,2013-08-05 20:48:00,
2013-08-05 16:53:00,84.4,71.8,29.93,North,357,0.0,0.0,66,0.00,,,0.00,meteohub,2013-08-05 20:53:00,
2013-08-05 16:58:00,84.0,71.4,29.93,North,357,0.0,0.0,66,0.00,,,0.00,meteohub,2013-08-05 20:58:00,
2013-08-05 17:04:00,83.8,71.8,29.92,North,357,0.0,0.0,67,0.00,,,0.00,meteohub,2013-08-05 21:04:00,
2013-08-05 17:09:00,83.8,72.1,29.92,North,357,0.0,0.0,68,0.00,,,0.00,meteohub,2013-08-05 21:09:00,
2013-08-05 17:14:00,84.0,73.2,29.92,North,357,0.0,0.0,70,0.00,,,0.00,meteohub,2013-08-05 21:14:00,
2013-08-05 17:20:00,83.8,71.8,29.92,SSE,155,0.0,0.0,67,0.00,,,0.00,meteohub,2013-08-05 21:20:00,
2013-08-05 17:25:00,83.7,72.3,29.92,SSE,153,0.0,0.0,69,0.00,,,0.00,meteohub,2013-08-05 21:25:00,
2013-08-05 17:30:00,83.1,72.0,29.92,SSE,155,0.0,0.0,69,0.00,,,0.00,meteohub,2013-08-05 21:30:00,
2013-08-05 17:35:00,82.9,72.5,29.92,SSE,155,0.0,0.0,71,0.00,,,0.00,meteohub,2013-08-05 21:35:00,
2013-08-05 17:40:00,82.9,73.4,29.92,SSE,155,0.0,0.0,73,0.00,,,0.00,meteohub,2013-08-05 21:40:00,
2013-08-05 17:47:00,82.9,73.0,29.92,SSE,155,0.0,0.0,72,0.00,,,0.00,meteohub,2013-08-05 21:47:00,
2013-08-05 17:52:00,82.8,72.0,29.92,SSE,155,0.0,0.0,70,0.00,,,0.00,meteohub,2013-08-05 21:52:00,
2013-08-05 17:57:00,82.6,72.1,29.92,SSE,155,0.0,0.0,71,0.00,,,0.00,meteohub,2013-08-05 21:57:00,
2013-08-05 18:02:00,82.8,72.3,29.92,SSE,155,0.0,0.0,71,0.00,,,0.00,meteohub,2013-08-05 22:02:00,
2013-08-05 18:07:00,82.9,73.0,29.92,SSE,155,0.0,0.0,72,0.00,,,0.00,meteohub,2013-08-05 22:07:00,
2013-08-05 18:12:00,82.9,73.0,29.91,SSE,155,0.0,0.0,72,0.00,,,0.00,meteohub,2013-08-05 22:12:00,
2013-08-05 18:17:00,82.9,73.0,29.92,SSE,155,0.0,0.0,72,0.00,,,0.00,meteohub,2013-08-05 22:17:00,
2013-08-05 18:22:00,82.8,72.9,29.92,SSE,155,0.0,0.0,72,0.00,,,0.00,meteohub,2013-08-05 22:22:00,
2013-08-05 18:28:00,82.8,73.6,29.92,SSE,155,0.0,0.0,74,0.00,,,0.00,meteohub,2013-08-05 22:28:00,
2013-08-05 18:33:00,82.6,73.8,29.92,SSE,155,0.0,0.0,75,0.00,,,0.00,meteohub,2013-08-05 22:33:00,
2013-08-05 18:38:00,82.0,73.4,29.92,SSE,155,0.0,0.0,75,0.00,,,0.00,meteohub,2013-08-05 22:38:00,
2013-08-05 18:43:00,81.9,73.6,29.92,SSE,155,0.0,0.0,76,0.00,,,0.00,meteohub,2013-08-05 22:43:00,
2013-08-05 18:48:00,81.7,73.0,29.92,SSE,155,0.0,0.0,75,0.00,,,0.00,meteohub,2013-08-05 22:48:00,
2013-08-05 18:53:00,81.3,73.0,29.92,SSE,155,0.0,0.0,76,0.00,,,0.00,meteohub,2013-08-05 22:53:00,
2013-08-05 18:58:00,81.1,72.9,29.92,SSE,155,0.0,0.0,76,0.00,,,0.00,meteohub,2013-08-05 22:58:00,
2013-08-05 19:03:00,81.1,73.2,29.92,SSE,155,0.0,0.0,77,0.00,,,0.00,meteohub,2013-08-05 23:03:00,
2013-08-05 19:08:00,81.1,73.6,29.92,SSE,155,0.0,0.0,78,0.00,,,0.00,meteohub,2013-08-05 23:08:00,
2013-08-05 19:14:00,81.1,73.9,29.92,SSE,155,0.0,0.0,79,0.00,,,0.00,meteohub,2013-08-05 23:14:00,
2013-08-05 19:19:00,81.1,73.6,29.92,SSE,155,0.0,0.0,78,0.00,,,0.00,meteohub,2013-08-05 23:19:00,
2013-08-05 19:24:00,81.1,73.6,29.92,SSE,155,0.0,0.0,78,0.00,,,0.00,meteohub,2013-08-05 23:24:00,
2013-08-05 19:29:00,81.0,73.4,29.91,SSE,155,0.0,0.0,78,0.00,,,0.00,meteohub,2013-08-05 23:29:00,
2013-08-05 19:34:00,80.6,72.7,29.92,SSE,155,0.0,0.0,77,0.00,,,0.00,meteohub,2013-08-05 23:34:00,
2013-08-05 19:39:00,80.2,72.7,29.92,SSE,155,0.0,0.0,78,0.00,,,0.00,meteohub,2013-08-05 23:39:00,
2013-08-05 19:45:00,79.9,72.3,29.92,SSE,155,0.0,0.0,78,0.00,,,0.00,meteohub,2013-08-05 23:45:00,
2013-08-05 19:51:00,79.5,72.9,29.92,SSE,155,0.0,0.0,80,0.00,,,0.00,meteohub,2013-08-05 23:51:00,
2013-08-05 19:56:00,79.3,73.0,29.92,SSE,155,0.0,0.0,81,0.00,,,0.00,meteohub,2013-08-05 23:56:00,
2013-08-05 20:01:00,79.2,73.2,29.92,SSE,155,0.0,0.0,82,0.00,,,0.00,meteohub,2013-08-06 00:01:00,
2013-08-05 20:06:00,78.8,72.9,29.92,SSE,155,0.0,0.0,82,0.00,,,0.00,meteohub,2013-08-06 00:06:00,
2013-08-05 20:11:00,78.4,72.9,29.92,SSE,155,0.0,0.0,83,0.00,,,0.00,meteohub,2013-08-06 00:11:00,
2013-08-05 20:16:00,78.1,72.5,29.93,SSE,155,0.0,0.0,83,0.00,,,0.00,meteohub,2013-08-06 00:16:00,
2013-08-05 20:21:00,78.1,73.2,29.93,SSE,155,0.0,0.0,85,0.00,,,0.00,meteohub,2013-08-06 00:21:00,
2013-08-05 20:27:00,77.7,73.2,29.93,SSE,155,0.0,0.0,86,0.00,,,0.00,meteohub,2013-08-06 00:27:00,
2013-08-05 20:32:00,77.5,73.0,29.93,SSE,155,0.0,0.0,86,0.00,,,0.00,meteohub,2013-08-06 00:32:00,
2013-08-05 20:37:00,77.2,72.3,29.93,SSE,155,0.0,0.0,85,0.00,,,0.00,meteohub,2013-08-06 00:37:00,
2013-08-05 20:42:00,77.0,72.1,29.93,SSE,155,0.0,0.0,85,0.00,,,0.00,meteohub,2013-08-06 00:42:00,
2013-08-05 20:47:00,76.8,72.0,29.94,SSE,155,0.0,0.0,85,0.00,,,0.00,meteohub,2013-08-06 00:47:00,
2013-08-05 20:52:00,76.6,71.8,29.94,SSE,155,0.0,0.0,85,0.00,,,0.00,meteohub,2013-08-06 00:52:00,
2013-08-05 20:57:00,76.5,71.6,29.94,SSE,155,0.0,0.0,85,0.00,,,0.00,meteohub,2013-08-06 00:57:00,
2013-08-05 21:02:00,76.3,71.4,29.93,SSE,155,0.0,0.0,85,0.00,,,0.00,meteohub,2013-08-06 01:02:00,
2013-08-05 21:07:00,75.9,71.4,29.93,SSE,155,0.0,0.0,86,0.00,,,0.00,meteohub,2013-08-06 01:07:00,
2013-08-05 21:12:00,75.9,71.8,29.93,SSE,155,0.0,0.0,87,0.00,,,0.00,meteohub,2013-08-06 01:12:00,
2013-08-05 21:17:00,75.7,71.6,29.93,SSE,155,0.0,0.0,87,0.00,,,0.00,meteohub,2013-08-06 01:17:00,
2013-08-05 21:22:00,75.6,71.4,29.93,SSE,155,0.0,0.0,87,0.00,,,0.00,meteohub,2013-08-06 01:22:00,
2013-08-05 21:27:00,75.2,71.1,29.93,SSE,155,0.0,0.0,87,0.00,,,0.00,meteohub,2013-08-06 01:27:00,
2013-08-05 21:33:00,75.0,71.2,29.94,SSE,155,0.0,0.0,88,0.00,,,0.00,meteohub,2013-08-06 01:33:00,
2013-08-05 21:38:00,74.8,71.1,29.94,SSE,155,0.0,0.0,88,0.00,,,0.00,meteohub,2013-08-06 01:38:00,
2013-08-05 21:43:00,74.8,71.1,29.94,SSE,155,0.0,0.0,88,0.00,,,0.00,meteohub,2013-08-06 01:43:00,
2013-08-05 21:48:00,74.8,71.1,29.93,SSE,155,0.0,0.0,88,0.00,,,0.00,meteohub,2013-08-06 01:48:00,
2013-08-05 21:53:00,74.7,70.5,29.93,SSE,155,0.0,0.0,87,0.00,,,0.00,meteohub,2013-08-06 01:53:00,
2013-08-05 21:59:00,74.7,70.5,29.93,SSE,155,0.0,0.0,87,0.00,,,0.00,meteohub,2013-08-06 01:59:00,
2013-08-05 22:04:00,74.7,70.5,29.94,SSE,155,0.0,0.0,87,0.00,,,0.00,meteohub,2013-08-06 02:04:00,
2013-08-05 22:09:00,74.7,70.5,29.93,SSE,155,0.0,0.0,87,0.00,,,0.00,meteohub,2013-08-06 02:09:00,
2013-08-05 22:14:00,74.5,70.3,29.94,SSE,155,0.0,0.0,87,0.00,,,0.00,meteohub,2013-08-06 02:14:00,
2013-08-05 22:19:00,74.5,70.3,29.93,SSE,155,0.0,0.0,87,0.00,,,0.00,meteohub,2013-08-06 02:19:00,
2013-08-05 22:24:00,74.5,70.3,29.94,SSE,155,0.0,0.0,87,0.00,,,0.00,meteohub,2013-08-06 02:24:00,
2013-08-05 22:31:00,74.1,70.0,29.94,SSE,155,0.0,0.0,87,0.00,,,0.00,meteohub,2013-08-06 02:31:00,
2013-08-05 22:36:00,74.1,70.0,29.94,SSE,155,0.0,0.0,87,0.00,,,0.00,meteohub,2013-08-06 02:36:00,
2013-08-05 22:41:00,74.1,70.3,29.94,SSE,155,0.0,0.0,88,0.00,,,0.00,meteohub,2013-08-06 02:41:00,
2013-08-05 22:47:00,73.9,70.2,29.93,SSE,155,0.0,0.0,88,0.00,,,0.00,meteohub,2013-08-06 02:47:00,
2013-08-05 22:52:00,73.9,70.5,29.94,SSE,155,0.0,0.0,89,0.00,,,0.00,meteohub,2013-08-06 02:52:00,
2013-08-05 22:57:00,73.8,70.3,29.94,SSE,155,0.0,0.0,89,0.00,,,0.00,meteohub,2013-08-06 02:57:00,
2013-08-05 23:02:00,73.8,70.3,29.94,SSE,155,0.0,0.0,89,0.00,,,0.00,meteohub,2013-08-06 03:02:00,
2013-08-05 23:07:00,73.6,70.2,29.94,SSE,155,0.0,0.0,89,0.00,,,0.00,meteohub,2013-08-06 03:07:00,
2013-08-05 23:12:00,73.2,69.8,29.93,SSE,155,0.0,0.0,89,0.00,,,0.00,meteohub,2013-08-06 03:12:00,
2013-08-05 23:17:00,73.2,70.2,29.93,SSE,155,0.0,0.0,90,0.00,,,0.00,meteohub,2013-08-06 03:17:00,
2013-08-05 23:22:00,73.0,70.0,29.94,SSE,155,0.0,0.0,90,0.00,,,0.00,meteohub,2013-08-06 03:22:00,
2013-08-05 23:27:00,72.9,70.2,29.94,SSE,155,0.0,0.0,91,0.00,,,0.00,meteohub,2013-08-06 03:27:00,
2013-08-05 23:32:00,72.7,70.0,29.94,SSE,155,0.0,0.0,91,0.00,,,0.00,meteohub,2013-08-06 03:32:00,
2013-08-05 23:37:00,72.7,70.0,29.94,SSE,155,0.0,0.0,91,0.00,,,0.00,meteohub,2013-08-06 03:37:00,
2013-08-05 23:42:00,72.5,69.8,29.94,SSE,155,0.0,0.0,91,0.00,,,0.00,meteohub,2013-08-06 03:42:00,
2013-08-05 23:47:00,72.3,69.8,29.94,SSE,155,0.0,0.0,92,0.00,,,0.00,meteohub,2013-08-06 03:47:00,
2013-08-05 23:52:00,72.3,69.8,29.94,SSE,155,0.0,0.0,92,0.00,,,0.00,meteohub,2013-08-06 03:52:00,
2013-08-05 23:57:00,72.3,69.8,29.94,SSE,155,0.0,0.0,92,0.00,,,0.00,meteohub,2013-08-06 03:57:00,